Regional Weather Roundup
Issued by NWS

Home | Current Version | Previous Version | Text Only | Print | Product List | Glossary Off
Versions: 1 2 3 4 5 6 7 8 9 10 11 12 13 14 15 16 17 18 19 20 21 22 23 24 25 26 27 28 29 30 31 32 33 34 35 36 37 38 39 40 41 42 43 44 45 46 47 48 49 50

000
ASUS43 KFSD 240710
RWRSD

WEATHER ROUNDUP FOR SOUTH DAKOTA
NATIONAL WEATHER SERVICE SIOUX FALLS SD
200 AM CDT TUE APR 24 2018

NOTE: "FAIR" INDICATES FEW OR NO CLOUDS BELOW 12,000 FEET WITH NO
SIGNIFICANT WEATHER AND/OR OBSTRUCTIONS TO VISIBILITY.


SDZ001>005-009-010-012>017-240800-
NORTHWEST AND NORTH CENTRAL SOUTH DAKOTA

CITY           SKY/WX    TMP DP  RH WIND       PRES   REMARKS
BUFFALO          N/A     36  32  85 N26       30.28R
FAITH            N/A     39  39 100 N32G39    30.22R
MOBRIDGE       RAIN      47  41  80 NE22      30.18R
$$

SDZ012>016-024>037-041>051-057-063-072>074-240800-
SOUTHWEST AND SOUTH CENTRAL SOUTH DAKOTA

CITY           SKY/WX    TMP DP  RH WIND       PRES   REMARKS
RAPID CTY ARPT LGT RAIN  36  33  89 NW30G43   30.28R
PIERRE         CLOUDY    50  46  86 SW7       30.08R
CUSTER         PTCLDY    31  24  75 N16G25    30.24R WCI  20
PHILIP         LGT RAIN  44  44 100 NW29G39   30.13R
PINE RIDGE     CLOUDY    39  37  92 NW9G20    30.27R
SPEARFISH      RAIN      32  32 100 W18G25    30.37R WCI  20
WINNER         LGT RAIN  53  48  83 W8        30.14R
$$

SDZ004>011-016>023-039-040-240800-
NORTHEAST SOUTH DAKOTA

CITY           SKY/WX    TMP DP  RH WIND       PRES   REMARKS
ABERDEEN       CLOUDY    53  43  68 NE13      30.16R
WATERTOWN      CLOUDY    53  40  61 E5        30.14S
BROOKINGS      CLOUDY    50  42  74 SE3       30.15S
SISSETON         N/A     51  43  74 NW8       30.17R
$$

SDZ017-020-022-023-036>040-048>070-240800-
SOUTHEAST SOUTH DAKOTA

CITY           SKY/WX    TMP DP  RH WIND       PRES   REMARKS
SIOUX FALLS    CLOUDY    48  40  73 CALM      30.14R
HURON          CLOUDY    55  43  63 SE9       30.12R
CHAMBERLAIN    LGT RAIN  55  47  77 S6        30.14R
MITCHELL       CLOUDY    55  42  61 SE14      30.13R
YANKTON        CLOUDY    50  40  68 CALM      30.15R
$$

ABBREVIATIONS USED IN REMARKS
   TC - TEMPERATURE IN CELSIUS
  WCI - WIND CHILL INDEX
   HX - HEAT INDEX
  VSB - VISIBILITY





USA.gov is the U.S. government's official web portal to all federal, state and local government web resources and services.